RH
81 84 87 85 78 89 92 94 97 100 99 96 98 94 86 99 98 95 95 94 93 90 93 99 98 98 100 99 99 98 99 100 97 97 95 95 97 99
74 83 92 83 79 85 86 85 96 99 100 99 98 95 100 97 95 97 98 97 97 99 99 99 97 98 96 97 98 80 49 50 89 94 95 97 96 98
86 81 83 84 86 89 88 84 90 95 100 100 98 93 89 98 99 99 98 99 100 100 99 98 95 86 52 30 26 25 25 26 46 94 95 100 99 99
92 90 90 86 90 89 89 84 80 80 82 82 86 93 99 99 99 99 99 99 98 98 93 59 56 45 30 27 26 19 14 18 29 58 55 56 62 94
96 89 87 92 92 90 90 83 86 80 84 86 90 95 96 97 98 99 99 96 88 80 54 31 26 26 23 15 12 21 28 32 36 39 40 40 40 52
94 96 98 97 95 90 86 85 83 86 88 88 90 93 97 96 81 78 86 69 38 24 22 19 16 13 12 23 33 38 39 39 40 40 40 41 60 96
98 99 96 95 91 90 88 90 88 87 89 89 89 87 80 74 54 31 24 20 20 16 11 11 18 28 34 41 43 43 44 45 46 48 49 57 87 100
98 99 93 90 89 88 90 91 88 84 72 46 36 23 16 17 18 21 20 16 13 12 13 30 42 43 44 45 48 47 46 47 47 46 50 58 65 71
96 89 88 89 86 83 75 48 24 14 12 13 15 18 20 20 21 19 16 14 14 23 36 39 43 44 46 50 44 40 42 45 47 51 51 52 53 54
85 86 76 49 26 15 12 11 11 10 11 13 14 17 18 18 20 18 21 24 36 48 51 47 43 42 45 40 35 36 43 48 52 54 53 54 54 53
35 18 12 10 9 7 7 9 10 12 13 14 15 17 19 22 18 23 34 51 49 52 54 53 45 41 39 38 40 44 46 50 49 55 56 52 47 48
11 10 8 7 7 8 10 12 13 15 17 18 20 22 24 26 29 39 53 55 56 55 53 57 50 48 45 45 43 54 54 49 52 49 56 56 51 44
7 7 8 9 10 12 13 15 16 17 20 20 21 22 24 31 44 56 58 59 58 56 62 62 54 54 59 54 41 46 50 54 56 47 53 56 56 61
8 8 10 11 12 14 15 15 17 17 19 21 23 26 37 56 59 59 61 60 60 60 62 67 65 63 69 70 55 52 57 58 59 48 54 62 63 64
8 10 11 12 12 14 16 17 17 19 21 24 29 38 57 59 60 61 61 61 62 64 66 69 71 73 79 80 80 64 67 60 59 55 58 63 63 61
9 11 13 13 13 15 18 19 19 22 24 28 33 46 57 58 60 62 63 65 63 68 78 82 86 86 81 80 83 71 70 78 64 54 63 63 60 62
10 12 13 13 14 14 15 17 20 23 27 32 35 49 57 60 64 67 67 69 69 67 69 83 92 90 86 84 81 72 75 73 65 61 66 62 54 56
10 12 14 15 14 12 14 16 20 22 22 28 35 46 58 64 68 72 74 74 72 71 72 78 84 88 84 74 75 76 77 74 64 64 69 71 56 52
9 12 13 14 14 13 13 14 17 21 22 23 24 36 59 66 71 73 75 75 72 72 72 80 86 95 95 89 72 82 84 79 76 69 72 74 74 56
8 11 11 13 15 15 14 14 15 17 20 24 25 26 28 38 56 66 72 73 72 71 67 68 79 97 100 100 95 68 77 83 79 74 72 74 71 66
8 9 12 12 13 16 18 16 15 16 18 21 25 28 31 34 33 34 39 48 58 62 66 64 78 98 98 99 95 81 73 78 82 82 79 83 76 74
8 8 10 12 13 14 17 19 19 18 18 20 23 28 31 36 37 38 39 41 40 44 51 61 77 93 96 98 93 88 78 70 73 78 80 86 89 100
14 9 9 10 12 14 14 17 20 23 24 24 25 27 29 30 34 39 42 43 45 46 51 66 85 92 92 95 95 91 84 78 73 68 64 70 72 79
Wind_Speed
21 23 23 25 28 25 24 22 23 21 18 22 19 17 19 17 17 17 18 17 21 19 22 22 22 22 21 21 22 22 21 18 18 16 16 16 15 16
22 25 23 22 22 22 23 25 22 21 19 16 15 16 14 15 17 18 19 20 19 21 21 20 21 20 20 20 20 20 19 17 15 14 14 15 16 17
25 25 24 21 22 21 21 20 20 18 15 13 15 17 17 15 15 15 17 16 16 17 17 17 17 17 18 18 19 18 18 18 17 14 16 16 14 16
28 27 21 22 20 18 17 16 17 17 16 18 17 15 13 13 13 13 13 12 13 16 14 14 17 17 17 17 19 21 21 19 17 16 15 15 16 16
22 21 19 16 15 15 14 14 13 13 13 14 14 11 11 11 11 11 12 13 14 14 14 15 16 17 19 20 19 17 16 15 14 14 14 15 16 17
16 15 13 12 11 11 11 13 11 10 8 8 9 9 11 11 10 12 13 13 13 15 15 16 19 18 16 14 14 12 12 12 13 14 16 17 17 17
12 12 11 11 11 10 8 7 6 6 7 8 9 10 10 11 11 12 13 14 14 16 16 15 15 13 13 12 12 13 13 14 15 17 19 19 17 17
10 11 9 9 6 5 4 4 5 6 7 7 8 9 11 11 13 14 15 15 14 13 12 7 11 11 11 12 13 16 17 18 19 20 18 18 19 20
9 9 8 5 4 3 4 5 7 8 9 9 9 10 11 12 13 14 14 14 12 10 11 7 9 8 10 14 19 20 19 19 16 15 20 23 23 24
9 8 6 4 3 3 5 7 9 10 10 10 10 11 11 12 12 12 11 10 8 8 11 11 10 9 10 17 18 15 10 9 13 21 21 24 25 25
8 6 4 3 3 6 7 8 10 11 12 11 11 11 11 11 11 9 7 6 6 8 12 13 12 15 15 11 6 1 9 15 20 20 22 25 25 25
5 4 2 4 6 7 9 10 10 11 10 11 11 11 10 11 9 7 7 7 9 9 8 13 15 16 11 5 5 16 15 12 16 20 21 21 22 24
3 2 4 5 7 8 8 10 10 10 9 10 10 9 9 8 7 8 9 10 12 12 12 16 19 17 17 22 23 22 16 21 21 19 19 18 14 18
2 3 5 8 9 10 10 10 10 10 9 9 8 8 7 8 9 10 12 13 13 14 14 15 20 19 21 26 29 27 28 25 24 18 9 15 20 19
3 5 7 8 9 9 10 10 10 9 8 8 7 8 9 11 11 12 12 14 14 13 14 14 17 18 21 26 32 31 32 26 21 22 21 21 21 22
5 6 7 9 9 9 10 10 10 9 9 8 9 11 12 12 12 13 13 14 15 11 11 14 16 19 23 26 28 32 28 30 26 23 25 24 24 23
6 7 8 9 10 10 10 10 10 10 11 11 12 13 14 14 14 14 16 16 16 15 13 11 15 20 23 26 30 29 28 26 24 24 22 28 26 23
7 8 9 10 11 12 11 11 11 12 12 14 15 16 16 16 17 16 17 17 18 18 18 18 20 21 23 25 25 25 23 25 19 22 24 28 29 23
10 9 10 11 12 13 13 13 12 13 15 15 17 17 18 19 19 19 20 20 20 21 21 21 20 20 24 28 30 25 25 26 28 25 23 24 29 26
11 12 12 13 13 14 14 14 13 14 16 17 17 18 19 21 22 22 22 23 23 23 24 23 21 20 24 27 31 33 27 28 25 25 25 24 25 26
14 14 14 14 15 16 16 16 16 15 16 17 18 19 19 21 23 24 24 24 26 26 28 27 24 23 25 27 32 36 30 27 26 26 26 27 29 29
15 16 15 16 17 17 18 18 18 17 16 18 18 19 20 22 25 26 26 27 27 28 29 28 26 25 24 27 32 34 35 29 25 25 24 22 25 27
17 18 17 17 18 18 19 20 20 18 18 18 19 19 21 24 24 26 27 27 28 28 28 30 29 28 27 28 30 33 35 32 30 30 27 22 24 28
Wind_Direction
268 271 272 279 279 279 275 276 278 274 276 290 287 284 283 276 279 284 281 274 275 266 274 279 280 277 275 273 274 272 273 276 282 288 292 297 293 286
271 273 273 278 275 275 271 275 273 280 276 273 283 283 279 284 287 281 278 277 270 271 270 274 276 272 274 276 275 279 282 287 289 293 291 287 283 278
266 275 271 278 272 273 271 272 273 274 273 273 279 280 282 283 282 278 273 270 270 268 272 274 274 276 280 279 281 283 285 287 288 287 278 277 285 285
265 266 265 269 265 265 268 268 271 273 282 279 280 279 279 279 276 271 267 270 269 273 274 279 281 283 281 284 287 289 289 291 290 294 291 290 287 284
256 262 263 252 254 258 262 263 263 272 271 272 268 266 269 268 262 262 267 273 277 280 284 284 283 284 286 288 292 295 298 298 295 295 293 289 286 283
253 247 233 238 242 250 254 257 255 251 259 258 262 262 265 263 264 269 277 281 283 288 291 288 286 286 288 291 292 291 294 296 296 292 289 289 290 288
222 217 218 227 232 236 239 247 249 257 256 261 263 261 261 264 270 276 279 284 288 291 289 289 289 292 291 293 291 294 298 303 300 296 294 292 289 287
212 208 213 216 216 228 239 256 268 269 272 274 271 270 271 275 278 282 286 292 302 295 292 281 290 294 288 289 296 302 303 300 295 296 298 295 291 286
185 183 181 175 193 216 243 264 274 278 280 281 279 278 279 281 285 288 293 297 298 292 300 307 297 299 299 300 301 299 293 285 285 285 294 292 289 290
162 161 161 179 205 253 278 287 291 295 293 290 287 285 285 286 286 292 296 293 294 297 304 310 310 305 302 303 300 295 282 275 278 294 294 291 291 291
156 169 188 220 263 286 292 295 296 295 295 295 291 289 291 292 291 289 285 286 290 301 303 308 314 312 317 311 304 5 304 296 300 296 295 294 294 294
175 196 251 286 298 302 302 300 298 295 293 289 288 287 284 280 282 277 277 292 306 319 302 310 306 313 317 301 248 315 307 303 310 302 296 292 292 292
205 254 292 306 312 311 310 304 303 300 294 289 288 284 278 271 269 274 284 292 296 296 297 297 301 306 303 300 302 311 310 317 322 314 298 294 296 299
257 294 309 319 315 312 317 314 308 305 292 287 280 270 262 264 274 284 291 294 299 300 297 290 290 297 298 299 302 310 312 320 323 328 315 304 300 295
294 312 313 314 319 322 320 315 312 301 295 285 275 266 265 272 280 285 289 294 297 300 297 292 290 291 288 291 298 306 312 320 318 316 311 303 299 299
308 314 316 322 324 319 314 312 308 303 296 284 274 269 273 279 281 284 289 290 291 294 293 292 291 290 292 294 297 301 309 307 311 309 305 300 305 304
300 305 311 317 317 313 308 308 308 302 295 287 280 276 278 279 281 284 286 289 292 296 292 286 282 287 292 296 295 301 306 301 305 305 300 303 306 310
297 298 303 311 313 312 312 311 308 301 296 291 291 285 281 281 283 283 285 288 292 294 296 302 303 300 298 295 298 302 298 303 304 304 305 304 307 313
290 293 303 309 313 314 312 313 309 300 295 294 291 291 287 285 284 284 286 288 289 292 294 299 303 306 305 303 306 306 306 309 311 306 308 305 305 310
288 297 302 304 308 310 311 313 310 304 301 298 294 293 291 290 287 288 289 292 293 292 293 295 303 308 299 302 300 301 308 308 308 307 310 306 303 309
284 291 297 301 304 306 309 309 309 307 304 298 296 293 293 292 291 290 290 292 295 297 298 300 305 303 301 298 295 302 307 309 309 308 311 308 311 312
277 284 291 296 299 302 303 305 306 307 305 300 297 294 294 292 291 293 294 294 294 296 296 298 301 301 295 296 298 301 305 309 308 307 302 297 301 295
274 278 283 289 294 296 299 300 301 303 303 302 298 295 292 291 292 291 292 293 295 296 298 301 303 304 302 300 302 302 304 309 311 309 304 308 308 314